[Iaude] MPEC G146: 2024 GZ2 [a=2.90,e=0.63,i=8.3,H=24.0]

mpec at cfa.harvard.edu mpec at cfa.harvard.edu
Thu Apr 11 05:17:46 EDT 2024


M.P.E.C. 2024-G146                               Issued 2024 April 11, 09:16 UT

     The Minor Planet Electronic Circulars contain information on unusual
         minor planets, routine data on comets and natural satellites,
         and occasional editorial announcements.  They are published
    on behalf of Division F of the International Astronomical Union by the
          Minor Planet Center, Smithsonian Astrophysical Observatory,
                          Cambridge, MA 02138, U.S.A.
			  
             Prepared using the Tamkin Foundation Computer Network

                              MPC at CFA.HARVARD.EDU
            URL https://www.minorplanetcenter.net/    ISSN 1523-6714

                                    2024 GZ2                                    


Observations:
     K24G02Z* C2024 04 09.45867613 04 04.269-16 16 46.23         21.08wXEG146F51
     K24G02Z  C2024 04 09.46986713 04 06.318-16 16 32.59         21.46wXEG146F51
     K24G02Z  C2024 04 09.48109113 04 08.357-16 16 18.55         21.13wXEG146F51
     K24G02Z KC2024 04 10.27588713 06 54.029-15 59 41.75               VEG146I52
     K24G02Z KC2024 04 10.27785513 06 54.414-15 59 39.05               VEG146I52
     K24G02Z KC2024 04 10.27982313 06 54.889-15 59 35.38         21.08GVEG146I52
     K24G02Z KC2024 04 10.28179313 06 55.264-15 59 33.00         21.05GVEG146I52
     K24G02Z 3C2024 04 10.42862413 07 26.143-15 56 11.21         20.90GVEG146T14
     K24G02Z 3C2024 04 10.42960113 07 26.330-15 56 09.91         20.72GVEG146T14
     K24G02Z 3C2024 04 10.43058213 07 26.519-15 56 08.64         20.92GVEG146T14
     K24G02Z KC2024 04 11.32306 13 10 42.99 -15 35 41.2          20.6 RVEG146691
     K24G02Z KC2024 04 11.34737 13 10 48.04 -15 35 06.0          20.9 RVEG146691
     K24G02Z KC2024 04 11.37167 13 10 53.07 -15 34 30.9          21.0 RVEG146691

Observer details:
691 Steward Observatory, Kitt Peak-Spacewatch.  Observer R. A. Mastaler.
    0.9-m f/3 reflector + CCD.
F51 Pan-STARRS 1, Haleakala.  Observers J. Herman, T. Lowe, P. Minguez, A.
    Schultz, I. Smith.  Measurers K. Chambers, T. de Boer, J. Fairlamb, H.
    Gao, M. Huber, C.-C. Lin, E. Magnier, Y. Ramanjooloo, R. Wainscoat, R.
    Weryk.  1.8-m Ritchey-Chretien + CCD.
I52 Steward Observatory, Mt. Lemmon Station.  Observer G. J. Leonard.
    Measurers T. Beuden, V. F. Carvajal, D. Fay, J. B. Fazekas, D. C. Fuls, A.
    R. Gibbs, A. D. Grauer, H. Groeller, J. K. Hogan, R. A. Kowalski, S. M.
    Larson, G. J. Leonard, D. Rankin, R. L. Seaman, F. C. Shelly, K. W.
    Wierzchos.  1.0-m prime focus + CCD.
T14 Canada-France-Hawaii Telescope, Maunakea.  Observers R. Wainscoat, A.
    Acohido, T. Burdullis.  Measurers R. Weryk, R. Wainscoat.  3.6-m f/4.1
    reflector + CCD.

Orbital elements:
2024 GZ2                                                 Earth MOID = 0.0872 AU
Epoch 2024 Mar. 31.0 TT = JDT 2460400.5                 MPC                     
M 350.44249              (2000.0)            P               Q                  
n   0.19917170     Peri.   31.56189     -0.49180247     +0.86783464             
a   2.9039177      Node   209.15628     -0.82601394     -0.49068664             
e   0.6310498      Incl.    8.33974     -0.27537484     -0.07803624             
P   4.95           H   24.09          G   0.15           U   9                  
Residuals in seconds of arc
240409 F51  0.0   0.1+    240410 I52  0.0   0.2+    240411 691  0.4+  0.3+
240409 F51  0.1+  0.1-    240410 I52  0.1-  0.0     240411 691  0.2+  0.1+
240409 F51  0.0   0.0     240410 T14  0.0   0.0     240411 691  0.7-  0.5-
240410 I52  1.4-  1.0-    240410 T14  0.0   0.0
240410 I52  1.3-  0.9-    240410 T14  0.0   0.0

Ephemeris:
2024 GZ2                 a,e,i = 2.90, 0.63, 8                   q = 1.0714
Date    TT    R. A. (2000) Decl.     Delta      r    Elong.  Phase     V
2024 03 12    12 16 08.8 -18 31 43   0.4011  1.3683   155.2    17.7    23.7
...
2024 03 27    12 33 10.4 -18 43 04   0.2744  1.2635   163.7    12.8    22.5
...
2024 04 04    12 48 34.2 -17 42 45   0.2176  1.2138   167.9     9.9    21.8
...
2024 04 10    13 05 55.5 -16 05 03   0.1799  1.1801   171.5     7.2    21.3
2024 04 11    13 09 30.6 -15 42 44   0.1740  1.1748   172.3     6.6    21.1
2024 04 12    13 13 20.1 -15 18 21   0.1683  1.1697   173.0     6.0    21.0
...
2024 04 18    13 42 21.5 -11 59 04   0.1370  1.1410   178.7     1.1    20.2
...
2024 04 26    14 42 54.6 -04 15 24   0.1054  1.1097   168.4    10.5    20.1
...
2024 05 11    17 36 52.9 +16 47 47   0.09709 1.0753   130.3    45.8    20.9

A. U. Tomatic                (C) Copyright 2024 MPC           M.P.E.C. 2024-G146





More information about the Iaude mailing list